Weather History for Sauk Centre, MN

Change the Weather History Date:

Sunday, November 18, 2012

  Actual Average (KGHW) Record (KGHW)
Temperature  
Mean Temperature 44 °F -  
Max Temperature 53 °F 38 °F 64 °F (1953)
Min Temperature 35 °F 22 °F -5 °F (1989)
Degree Days  
Heating Degree Days 21    
Moisture  
Dew Point 33 °F    
Average Humidity 67    
Maximum Humidity 87    
Minimum Humidity 47    
Precipitation  
Precipitation 0.00 in - - ()
Sea Level Pressure  
Sea Level Pressure 30.03 in    
Wind  
Wind Speed 11 mph (SE)    
Max Wind Speed 15 mph    
Max Gust Speed 20 mph    
Visibility 10 miles    
Events      
Averages and records for this station are not official NWS values.
T = Trace of Precipitation, MM = Missing Value Source: NWS Daily Summary

Daily Weather History Graph

Daily Weather History Graph

Search for Another Location

Airport:

Trip Planner

Search our weather history database for the weather conditions in past years. The results will help you decide how hot, cold, wet, or windy it might be!

Date:

Astronomy

Nov. 18, 2012 Rise Set
Actual Time 7:24 AM CST 4:45 PM CST
Civil Twilight 6:51 AM CST 5:17 PM CST
Nautical Twilight 6:15 AM CST 5:54 PM CST
Astronomical Twilight 5:40 AM CST 6:29 PM CST
Moon 11:48 AM CST (11/18) 10:10 PM CST (11/18)
Length of Visible Light 10h 26m
Length of Day
9h 21m
Waxing Crescent, 30% of the Moon is Illuminated
Nov 18
Waxing Crescent
Nov 20
First Quarter
Nov 28
Full
Dec 6
Last Quarter
Dec 13
New

Hourly Weather History & Observations

Time (CST) Temp. Windchill Dew Point Humidity Pressure Visibility Wind Dir Wind Speed Gust Speed Precip Events Conditions
12:15 AM 42.8 °F 35.8 °F 32.0 °F 66% 30.09 in 10.0 mi SSE 13.8 mph - N/A   Clear
12:35 AM 41.0 °F 33.5 °F 32.0 °F 70% 30.09 in 10.0 mi SSE 13.8 mph - N/A   Clear
12:55 AM 41.0 °F 34.3 °F 32.0 °F 70% 30.09 in 10.0 mi SSE 11.5 mph - N/A   Clear
1:15 AM 41.0 °F 34.7 °F 32.0 °F 70% 30.09 in 10.0 mi SSE 10.4 mph - N/A   Clear
1:35 AM 41.0 °F 34.3 °F 32.0 °F 70% 30.08 in 10.0 mi SSE 11.5 mph - N/A   Clear
1:55 AM 39.2 °F 32.5 °F 32.0 °F 75% 30.08 in 10.0 mi SSE 10.4 mph - N/A   Clear
2:15 AM 39.2 °F 33.0 °F 32.0 °F 75% 30.08 in 10.0 mi SSE 9.2 mph - N/A   Clear
2:35 AM 37.4 °F 30.8 °F 32.0 °F 81% 30.08 in 10.0 mi SSE 9.2 mph - N/A   Clear
2:55 AM 39.2 °F 33.0 °F 32.0 °F 75% 30.07 in 10.0 mi SSE 9.2 mph - N/A   Clear
3:15 AM 37.4 °F 30.8 °F 32.0 °F 81% 30.07 in 10.0 mi SSE 9.2 mph - N/A   Clear
3:35 AM 37.4 °F 32.1 °F 32.0 °F 81% 30.06 in 10.0 mi SSE 6.9 mph - N/A   Clear
3:55 AM 37.4 °F 32.8 °F 32.0 °F 81% 30.05 in 10.0 mi SE 5.8 mph - N/A   Clear
4:15 AM 37.4 °F 32.8 °F 32.0 °F 81% 30.05 in 10.0 mi SE 5.8 mph - N/A   Clear
4:35 AM 37.4 °F 30.8 °F 32.0 °F 81% 30.05 in 10.0 mi SE 9.2 mph - N/A   Clear
4:55 AM 37.4 °F 30.8 °F 32.0 °F 81% 30.05 in 10.0 mi SE 9.2 mph - N/A   Clear
5:15 AM 37.4 °F 29.8 °F 32.0 °F 81% 30.04 in 10.0 mi SE 11.5 mph - N/A   Clear
5:35 AM 37.4 °F 30.3 °F 32.0 °F 81% 30.04 in 10.0 mi SE 10.4 mph - N/A   Clear
5:55 AM 37.4 °F 30.8 °F 32.0 °F 81% 30.04 in 10.0 mi SE 9.2 mph - N/A   Clear
6:15 AM 37.4 °F 30.8 °F 32.0 °F 81% 30.04 in 10.0 mi SE 9.2 mph - N/A   Clear
6:35 AM 37.4 °F 29.8 °F 32.0 °F 81% 30.04 in 10.0 mi SE 11.5 mph - N/A   Clear
6:55 AM 37.4 °F 30.8 °F 32.0 °F 81% 30.04 in 10.0 mi SE 9.2 mph 16.1 mph N/A   Clear
7:15 AM 37.4 °F 30.3 °F 32.0 °F 81% 30.04 in 10.0 mi SE 10.4 mph - N/A   Clear
7:35 AM 35.6 °F 28.6 °F 32.0 °F 87% 30.04 in 10.0 mi SE 9.2 mph - N/A   Clear
7:55 AM 35.6 °F 28.0 °F 32.0 °F 87% 30.04 in 10.0 mi SE 10.4 mph - N/A   Clear
8:15 AM 37.4 °F 29.8 °F 32.0 °F 81% 30.04 in 10.0 mi SSE 11.5 mph - N/A   Clear
8:35 AM 37.4 °F 30.3 °F 32.0 °F 81% 30.04 in 10.0 mi SSE 10.4 mph - N/A   Clear
8:55 AM 41.0 °F 34.7 °F 32.0 °F 70% 30.03 in 10.0 mi SSE 10.4 mph 17.3 mph N/A   Clear
9:15 AM 41.0 °F 33.5 °F 32.0 °F 70% 30.03 in 10.0 mi SSE 13.8 mph - N/A   Clear
9:35 AM 42.8 °F 36.2 °F 32.0 °F 66% 30.03 in 10.0 mi SSE 12.7 mph - N/A   Clear
9:55 AM 44.6 °F 38.1 °F 32.0 °F 61% 30.04 in 10.0 mi SSE 13.8 mph - N/A   Clear
10:15 AM 44.6 °F 38.1 °F 32.0 °F 61% 30.04 in 10.0 mi SSE 13.8 mph - N/A   Clear
10:35 AM 44.6 °F 38.1 °F 32.0 °F 61% 30.04 in 10.0 mi SSE 13.8 mph - N/A   Clear
10:55 AM 46.4 °F 40.7 °F 32.0 °F 57% 30.04 in 10.0 mi SSE 12.7 mph - N/A   Clear
11:15 AM 46.4 °F 40.1 °F 32.0 °F 57% 30.04 in 10.0 mi SSE 15.0 mph - N/A   Clear
11:35 AM 46.4 °F 40.7 °F 32.0 °F 57% 30.03 in 10.0 mi SSE 12.7 mph 16.1 mph N/A   Clear
11:55 AM 48.2 °F - 32.0 °F 54% 30.03 in 10.0 mi SSE 11.5 mph - N/A   Clear
12:15 PM 50.0 °F - 33.8 °F 54% 30.02 in 10.0 mi SSE 10.4 mph 16.1 mph N/A   Clear
12:35 PM 50.0 °F - 33.8 °F 54% 30.02 in 10.0 mi SSE 12.7 mph 17.3 mph N/A   Clear
12:55 PM 51.8 °F - 33.8 °F 50% 30.01 in 10.0 mi SSE 11.5 mph - N/A   Clear
1:15 PM 51.8 °F - 33.8 °F 50% 30.00 in 10.0 mi SSE 13.8 mph 19.6 mph N/A   Clear
1:35 PM 51.8 °F - 33.8 °F 50% 30.01 in 10.0 mi SSE 15.0 mph - N/A   Clear
1:55 PM 53.6 °F - 33.8 °F 47% 30.00 in 10.0 mi SSE 13.8 mph - N/A   Clear
2:15 PM 53.6 °F - 33.8 °F 47% 30.00 in 10.0 mi SE 12.7 mph 18.4 mph N/A   Clear
2:35 PM 53.6 °F - 33.8 °F 47% 30.00 in 10.0 mi SSE 13.8 mph - N/A   Clear
2:55 PM 53.6 °F - 33.8 °F 47% 29.99 in 10.0 mi SE 12.7 mph - N/A   Clear
3:15 PM 53.6 °F - 35.6 °F 51% 29.99 in 10.0 mi SSE 11.5 mph - N/A   Clear
3:35 PM 53.6 °F - 35.6 °F 51% 30.00 in 10.0 mi SE 11.5 mph - N/A   Clear
3:55 PM 51.8 °F - 35.6 °F 54% 30.00 in 10.0 mi SE 10.4 mph - N/A   Clear
4:15 PM 51.8 °F - 35.6 °F 54% 30.00 in 10.0 mi SE 10.4 mph - N/A   Clear
4:35 PM 50.0 °F - 35.6 °F 58% 30.00 in 10.0 mi SE 9.2 mph - N/A   Clear
4:55 PM 48.2 °F - 33.8 °F 58% 30.01 in 10.0 mi SE 8.1 mph - N/A   Clear
5:15 PM 48.2 °F - 35.6 °F 62% 30.01 in 10.0 mi SE 10.4 mph - N/A   Clear
5:35 PM 48.2 °F - 33.8 °F 58% 30.01 in 10.0 mi SE 10.4 mph - N/A   Clear
5:55 PM 46.4 °F 42.4 °F 33.8 °F 62% 30.01 in 10.0 mi SE 8.1 mph - N/A   Clear
6:15 PM 48.2 °F - 35.6 °F 62% 30.01 in 10.0 mi SE 10.4 mph - N/A   Clear
6:35 PM 46.4 °F 41.5 °F 35.6 °F 66% 30.01 in 10.0 mi SE 10.4 mph - N/A   Clear
6:55 PM 46.4 °F 42.4 °F 35.6 °F 66% 30.01 in 10.0 mi SE 8.1 mph - N/A   Mostly Cloudy
7:15 PM 46.4 °F 42.4 °F 35.6 °F 66% 30.01 in 10.0 mi SE 8.1 mph - N/A   Overcast
7:35 PM 46.4 °F 42.9 °F 35.6 °F 66% 30.02 in 10.0 mi SE 6.9 mph - N/A   Scattered Clouds
8:15 PM 44.6 °F 40.2 °F 33.8 °F 66% 30.02 in 10.0 mi SE 8.1 mph - N/A   Scattered Clouds
8:35 PM 44.6 °F 40.2 °F 33.8 °F 66% 30.01 in 10.0 mi SE 8.1 mph - N/A   Clear
8:55 PM 44.6 °F 39.7 °F 33.8 °F 66% 30.01 in 10.0 mi SE 9.2 mph - N/A   Clear
9:15 PM 46.4 °F 41.5 °F 33.8 °F 62% 30.01 in 10.0 mi SE 10.4 mph - N/A   Scattered Clouds
9:35 PM 46.4 °F 41.5 °F 33.8 °F 62% 30.01 in 10.0 mi SSE 10.4 mph - N/A   Scattered Clouds
9:55 PM 46.4 °F 41.9 °F 33.8 °F 62% 30.01 in 10.0 mi SSE 9.2 mph - N/A   Scattered Clouds
10:15 PM 46.4 °F 41.1 °F 33.8 °F 62% 30.01 in 10.0 mi SSE 11.5 mph - N/A   Scattered Clouds
10:35 PM 44.6 °F 39.7 °F 33.8 °F 66% 30.01 in 10.0 mi SSE 9.2 mph - N/A   Clear
11:15 PM 42.8 °F 37.5 °F 33.8 °F 70% 30.01 in 10.0 mi SE 9.2 mph - N/A   Clear
11:35 PM 42.8 °F 37.5 °F 33.8 °F 70% 30.00 in 10.0 mi SE 9.2 mph - N/A   Clear
11:55 PM 41.0 °F 35.2 °F 33.8 °F 76% 30.01 in 10.0 mi SE 9.2 mph - N/A   Clear